Wind_Speed
6 6 6 9 6 6 5 4 5 6 3 2 7 9 9 8 8 9 9 8 8 7 9 10 5 5 5 6 5 6 8 9 10 12 14 14 17 18 18 17 18 20 20 20
7 6 5 2 3 2 4 5 5 4 1 0 7 10 10 8 9 10 10 9 9 5 8 10 11 7 6 4 6 6 6 8 9 11 12 15 18 19 19 20 19 19 16 15
7 3 5 1 9 7 7 5 5 4 5 4 5 7 6 7 8 3 2 1 4 6 6 7 8 4 3 6 5 6 7 9 10 12 13 15 17 17 17 17 19 22 20 19
6 4 2 8 7 7 4 6 5 5 4 1 3 4 6 2 7 6 6 4 5 4 1 2 3 2 3 4 5 5 8 10 11 12 14 14 16 15 18 20 18 18 18 18
1 7 7 8 4 4 3 2 5 4 4 3 3 3 8 8 7 7 9 8 8 7 7 6 2 2 4 5 4 8 8 10 11 10 13 12 11 13 16 17 17 17 16 14
5 3 5 3 6 7 4 2 2 2 3 2 3 3 5 3 3 4 6 6 7 6 4 2 4 3 6 7 5 5 8 9 9 10 9 9 11 14 14 16 17 15 15 16
4 3 3 2 4 2 4 1 2 3 2 4 1 2 9 9 2 3 6 5 5 4 3 4 3 4 4 4 4 5 6 9 10 7 6 7 9 10 13 14 12 14 17 19
3 0 3 3 3 1 1 3 2 3 2 3 1 5 6 3 7 4 3 3 3 2 4 6 7 5 5 6 5 6 7 8 9 6 7 7 8 10 12 14 15 18 21 22
3 2 3 4 3 2 2 0 1 0 1 2 4 6 7 5 4 4 4 5 6 6 6 5 5 4 5 4 5 6 7 8 8 8 7 7 8 11 14 16 18 20 20 20
3 4 0 4 3 2 0 1 2 1 2 4 5 3 6 4 5 6 8 7 7 6 1 4 6 5 2 5 7 7 8 9 10 8 9 9 11 12 13 16 18 19 20 19
1 4 2 2 5 6 2 2 3 1 1 4 3 6 5 6 5 6 5 7 7 6 2 4 4 6 5 7 9 10 9 9 12 9 9 10 12 14 13 15 16 17 18 16
2 1 3 6 4 5 4 5 6 3 2 3 3 7 2 4 5 6 7 6 5 5 5 5 6 7 8 11 11 12 12 12 11 9 7 9 10 11 12 14 15 15 15 14
3 2 1 1 1 3 4 5 6 4 3 5 3 5 4 6 5 5 7 8 7 7 7 6 7 9 11 12 13 14 14 14 12 9 7 8 8 10 11 12 13 14 13 13
1 3 4 4 2 4 4 6 9 7 3 4 10 9 12 11 12 7 7 8 9 9 8 6 6 10 13 14 16 16 16 16 12 9 8 8 8 10 10 10 11 11 10 11
2 3 6 7 8 8 8 9 11 13 16 6 1 10 10 12 16 16 9 5 6 7 6 6 7 8 15 14 17 17 18 16 12 11 10 10 10 11 10 10 10 9 9 9
3 3 5 6 11 11 13 13 14 17 17 20 20 26 19 19 5 4 7 7 7 7 7 8 8 11 14 16 17 19 19 16 13 13 13 11 12 12 11 10 10 10 9 7
3 2 4 4 3 6 8 8 15 10 10 12 14 19 10 9 11 12 8 7 8 8 8 8 8 9 13 14 16 18 18 14 15 15 14 14 14 15 14 12 12 11 11 10
2 2 2 4 7 3 4 5 2 1 7 11 15 16 13 12 9 9 6 6 8 7 6 4 6 8 10 11 12 14 13 15 17 17 17 16 16 17 16 14 14 13 12 13
1 3 3 2 4 9 2 2 2 2 4 3 7 7 8 5 7 8 5 5 4 5 5 8 10 12 12 11 10 14 16 18 19 21 21 20 18 18 18 17 16 15 14 15
6 2 1 1 2 4 0 4 1 3 4 3 5 6 6 6 3 3 4 5 6 10 12 12 13 14 15 16 14 16 19 20 23 25 24 20 19 21 22 20 18 17 16 17
3 4 5 5 4 7 4 7 4 1 4 4 2 5 5 4 5 7 9 7 13 15 18 18 18 18 19 18 15 19 21 23 25 24 23 23 23 23 23 21 19 18 18 17
6 6 4 4 4 7 4 5 4 3 3 4 5 4 6 7 8 8 9 9 10 14 22 23 19 21 21 19 18 20 22 26 23 23 24 24 24 24 23 23 22 21 20 20
4 6 4 8 5 2 5 5 6 4 4 6 5 7 6 8 8 11 12 9 9 18 22 24 19 20 19 17 17 20 26 24 22 22 24 25 25 24 24 24 25 23 21 22
3 1 3 3 5 7 7 6 5 4 5 4 5 7 8 11 13 14 13 12 11 16 20 22 17 16 17 17 17 21 23 25 23 21 21 23 23 23 23 25 26 25 23 24
1 3 4 6 12 11 11 2 2 4 6 8 8 9 10 11 15 14 14 13 15 18 20 20 16 16 19 20 21 21 20 18 19 20 19 21 22 21 22 25 27 28 30 29
6 6 4 6 7 5 13 8 9 10 6 8 10 12 15 13 16 15 16 21 19 17 21 21 16 16 20 20 20 19 16 14 17 18 18 18 19 21 22 24 26 25 27 28
Wind_Direction
342 66 68 51 17 310 147 84 103 105 69 1 246 253 261 197 206 222 239 249 258 230 138 133 177 226 259 289 285 308 314 320 316 318 319 316 311 309 308 310 303 299 298 304
41 66 16 302 284 8 33 110 55 74 38 306 328 298 278 259 220 204 214 227 238 200 143 170 194 200 248 260 288 298 306 310 312 310 306 305 305 304 303 307 312 310 312 310
77 52 276 88 35 49 35 34 48 32 314 187 302 287 241 239 223 219 152 72 319 260 175 169 163 191 215 255 262 290 304 311 311 315 312 313 307 307 312 315 310 305 306 305
65 319 63 74 62 3 91 355 29 28 45 258 16 278 314 260 220 208 196 185 242 228 89 35 235 253 235 242 273 297 306 314 321 315 317 315 318 319 314 308 309 310 308 307
23 29 42 53 9 349 123 8 62 58 76 39 212 86 272 254 256 214 203 183 195 226 185 199 241 247 251 260 270 301 311 317 316 311 314 313 314 312 318 317 310 311 314 314
100 99 24 77 53 61 147 178 93 121 109 19 331 118 278 276 342 73 63 138 165 196 158 220 274 227 244 250 241 282 308 309 312 314 316 313 312 313 309 309 305 307 308 310
55 25 113 333 90 75 23 8 344 346 6 229 302 38 245 291 222 49 126 132 153 156 208 246 249 241 218 197 243 282 288 306 307 320 314 310 307 305 306 304 306 309 317 319
148 2 26 1 110 153 119 137 137 239 299 312 199 237 256 100 49 78 61 125 70 304 273 236 234 242 237 232 233 248 281 295 308 298 292 307 305 311 303 297 317 326 313 309
129 91 117 34 14 39 250 269 325 35 69 51 233 268 308 173 158 162 194 192 216 229 235 255 278 265 244 211 217 254 280 285 293 284 290 306 310 300 304 324 330 315 304 307
47 93 44 113 243 175 346 187 126 351 33 288 291 253 233 327 305 299 200 207 209 195 126 325 313 304 246 230 230 251 268 275 284 277 284 303 306 309 321 327 314 311 310 312
43 93 145 105 205 176 170 230 226 350 202 198 303 270 200 216 247 287 222 197 208 197 239 292 291 288 241 229 239 249 258 265 268 278 293 312 316 326 327 314 307 311 313 317
61 83 174 211 61 10 264 248 185 140 224 242 145 272 68 51 22 10 321 312 303 285 264 290 265 256 242 226 232 238 252 252 260 275 301 310 318 319 313 307 306 309 313 320
159 230 130 242 148 185 248 216 243 266 89 228 157 259 161 179 178 214 238 256 264 267 275 287 263 243 232 234 238 238 245 246 254 265 281 299 311 310 311 310 310 309 311 317
337 275 217 197 148 132 204 218 209 201 167 225 223 274 259 294 293 289 247 242 236 234 249 264 266 254 254 236 233 241 241 247 253 255 270 280 285 290 298 307 310 312 315 322
271 260 260 265 275 270 244 218 211 215 224 231 121 272 295 309 308 296 258 292 301 292 292 286 267 256 253 250 234 241 242 243 245 249 257 265 274 281 289 294 300 307 315 323
185 284 300 279 256 247 258 253 241 240 239 243 258 272 278 273 262 280 262 255 268 268 265 264 271 271 261 253 243 238 243 243 243 246 251 260 265 274 277 281 289 294 302 305
192 269 349 266 332 296 284 254 233 233 241 237 250 256 291 304 311 295 286 292 281 270 267 267 270 286 286 269 252 238 246 241 240 245 252 255 258 265 268 271 278 283 289 293
274 230 277 281 306 255 276 216 164 256 270 237 246 266 275 277 278 283 267 285 291 283 281 312 311 310 303 273 250 252 243 238 239 245 251 254 254 260 265 265 267 271 274 275
295 318 294 279 309 285 304 46 47 140 297 21 237 267 283 336 349 326 336 339 305 319 299 280 280 282 284 282 259 236 231 234 240 247 250 253 254 257 259 261 265 270 269 272
312 295 319 339 253 256 177 162 73 72 292 55 35 2 330 337 320 263 4 328 302 297 292 288 282 278 277 275 262 237 231 232 237 248 252 256 254 254 255 258 260 264 265 270
167 214 216 236 268 284 282 148 142 70 237 142 32 351 313 286 232 285 315 306 295 286 286 279 276 270 274 278 265 247 246 246 254 260 259 256 257 254 257 262 262 263 265 268
173 161 195 197 237 267 126 104 176 198 306 348 321 294 293 287 288 283 283 278 286 286 290 286 275 275 268 272 265 256 256 265 270 268 260 255 259 259 258 258 260 257 257 259
215 196 188 193 216 218 192 259 266 269 254 276 276 286 290 284 278 289 293 279 281 289 288 284 274 278 274 271 256 248 263 272 270 262 257 257 260 261 260 256 257 254 251 250
252 216 230 350 260 265 306 308 306 308 274 323 343 312 288 286 291 287 285 283 283 283 284 288 279 271 277 277 273 272 279 275 264 262 261 255 254 259 257 253 251 250 248 248
232 124 217 262 284 289 282 35 46 319 303 294 285 284 288 292 293 292 292 288 285 282 287 287 265 261 272 284 284 287 287 286 272 267 267 264 259 257 260 253 250 249 258 256
190 208 198 252 283 299 305 327 335 321 339 331 310 308 303 300 295 297 295 292 287 281 288 284 264 266 275 283 286 292 292 284 280 278 272 272 267 267 264 264 264 259 261 267
Height
797 814 825 819 814 811 804 805 813 827 828 830 827 823 812 811 813 815 815 813 811 809 809 814 819 821 822 822 822 822 821 821 820 818 816 814 812 811 809 808 807 806 805 804
815 832 823 817 810 807 805 812 828 827 828 829 828 828 814 805 804 806 807 808 808 805 809 812 816 818 819 820 821 821 820 819 818 817 815 814 811 809 808 806 805 804 804 802
824 832 824 816 827 824 835 830 831 835 831 828 833 827 809 796 797 795 797 800 803 805 807 810 813 816 818 819 819 819 819 817 816 814 813 811 809 807 806 805 803 802 801 800
834 830 825 830 837 841 841 844 839 840 855 857 833 865 815 796 800 799 800 804 807 805 807 809 812 814 816 817 817 817 817 816 814 813 811 810 808 806 804 802 801 799 798 796
846 841 837 844 849 843 853 846 846 851 870 872 842 875 832 803 800 798 802 803 805 806 807 810 811 813 814 815 815 815 815 814 813 811 810 809 807 805 803 801 799 797 795 794
842 842 845 847 848 845 847 846 848 857 876 882 849 858 849 811 801 798 797 800 802 805 806 808 810 811 812 812 812 812 813 812 811 809 808 807 806 804 801 799 797 795 793 791
845 848 848 845 846 847 850 850 861 859 871 863 879 874 835 807 799 798 802 803 803 803 805 807 807 808 809 810 810 810 811 810 808 807 806 805 803 802 799 797 796 793 791 789
853 864 849 849 851 853 854 861 859 858 859 856 866 864 831 799 801 798 800 801 803 804 805 805 805 806 807 807 808 808 809 807 805 804 803 802 801 799 797 796 794 791 790 788
843 855 852 850 849 852 853 864 852 868 852 879 853 819 802 800 804 803 804 804 806 804 804 803 803 803 804 805 806 806 805 804 803 802 801 800 798 798 796 794 791 791 790 788
834 863 847 853 853 853 853 850 866 877 880 870 842 834 834 823 814 802 804 805 803 801 801 802 802 802 802 802 802 803 803 802 801 799 799 796 795 795 793 792 792 791 789 786
831 843 858 852 855 857 863 861 853 854 854 877 868 847 820 830 812 805 801 802 802 800 800 801 800 799 799 799 800 800 799 800 799 796 795 794 794 793 792 792 791 789 787 784
839 839 871 854 843 843 844 843 845 873 852 865 875 858 804 804 804 805 805 804 800 799 799 798 797 796 796 796 796 796 796 797 795 794 792 792 792 792 791 790 789 788 785 783
837 844 861 851 851 848 849 841 840 839 857 861 879 848 802 803 803 802 803 802 800 797 796 795 793 792 791 792 792 792 793 792 791 790 789 789 790 790 790 789 788 786 783 781
840 836 843 856 837 836 849 839 837 846 871 850 840 827 806 805 802 800 797 795 794 792 791 790 790 788 786 787 787 788 788 788 787 786 786 787 788 788 788 787 785 783 781 779
841 844 835 831 828 828 829 831 833 841 832 838 814 815 804 802 801 796 791 789 789 788 786 786 785 783 782 782 783 783 783 783 783 783 783 784 785 785 785 784 783 781 779 777
838 844 834 840 826 825 826 822 821 820 819 821 821 812 802 795 792 791 789 787 787 786 784 782 781 779 778 777 777 778 778 779 779 779 780 780 781 781 781 780 779 777 775 773
838 842 842 841 820 823 834 810 811 812 810 810 816 797 796 795 792 790 787 785 783 782 780 779 777 776 774 772 773 773 774 775 775 776 775 775 776 776 776 775 774 774 772 771
837 839 839 847 831 830 803 797 798 802 802 800 798 795 795 793 787 782 779 780 780 778 776 775 774 772 771 769 769 769 770 771 771 770 770 771 771 771 771 770 769 769 767 766
840 844 848 847 843 819 794 800 800 803 800 791 796 794 791 788 788 784 776 777 776 775 774 772 771 770 768 767 766 765 766 766 766 765 764 765 765 765 766 765 765 764 764 763
851 844 853 841 847 830 798 801 800 801 815 790 791 793 793 792 800 791 781 779 777 775 773 771 769 767 765 764 763 762 761 761 760 759 759 760 760 760 760 759 759 759 759 759
854 852 860 856 851 826 795 800 801 805 804 791 790 793 793 795 793 784 779 776 775 772 769 767 765 763 761 761 760 758 757 755 755 755 755 755 755 755 755 755 755 755 755 755
847 854 858 851 843 842 798 803 805 798 791 792 794 791 791 788 784 781 777 773 770 767 764 762 759 756 755 755 755 753 752 750 751 750 750 750 749 749 749 749 748 749 749 749
831 817 825 827 819 794 794 794 792 790 791 790 789 787 785 784 780 776 772 769 765 763 759 756 754 752 750 749 748 746 743 745 744 744 743 742 742 742 742 742 742 743 743 742
814 812 818 811 792 791 791 789 789 786 788 785 784 784 782 779 775 769 766 762 759 756 754 751 749 747 746 746 745 743 741 739 738 737 736 736 736 736 736 736 736 736 737 736
816 816 814 811 797 793 787 788 790 789 787 785 783 781 777 774 769 765 760 757 753 750 747 746 743 742 741 741 739 737 736 735 733 732 731 731 730 730 729 729 729 729 728 729
816 813 816 806 794 795 790 790 788 787 786 784 781 776 774 771 766 762 756 751 748 744 742 740 738 737 736 735 733 731 731 730 729 728 726 726 725 725 724 724 723 724 723 723